Overview Statistics Trail Chart Weather Telemetry Raw packets
 

This is the latest recevied weather packets stored in our database for station/object K4XP. If no packets are shown the sender has not sent any weather packets the latest 10 day(s).

<< 29 30 31 32 33 34 35 >>
Time Temp. Humidity Pressure Rain* Wind** Luminosity Snow
1788476123 35.56° C 54% 1015.7 hPa 0 mm - - -
1788475811 35.56° C 55% 1015.6 hPa 0 mm - - -
1788475523 35.56° C 54% 1015.7 hPa 0 mm - - -
1788475227 35.56° C 55% 1015.7 hPa 0 mm - - -
1788474917 35.56° C 54% 1015.7 hPa 0 mm - - -
1788474016 36.11° C 53% 1015.7 hPa 0 mm - - -
1788473720 35.56° C 54% 1015.7 hPa 0 mm - - -
1788473427 35.56° C 53% 1015.8 hPa 0 mm - - -
1788472827 35.56° C 54% 1015.7 hPa 0 mm - - -
1788472529 35.56° C 54% 1015.6 hPa 0 mm - - -
1788472219 36.11° C 52% 1015.7 hPa 0 mm - - -
1788471921 36.11° C 53% 1015.7 hPa 0 mm - - -
1788471633 36.11° C 52% 1015.8 hPa 0 mm - - -
1788471029 36.11° C 51% 1015.8 hPa 0 mm - - -
1788469513 36.11° C 54% 1015.9 hPa 0 mm - - -
1788469218 36.11° C 51% 1015.8 hPa 0 mm - - -
1788468927 36.11° C 50% 1015.9 hPa 0 mm - - -
1788468612 36.11° C 49% 1015.9 hPa 0 mm - - -
1788468321 36.67° C 48% 1016 hPa 0 mm - - -
1788468024 36.67° C 50% 1016 hPa 0 mm - - -
1788467734 36.67° C 51% 1016.1 hPa 0 mm - - -
1788467418 36.67° C 50% 1016.1 hPa 0 mm - - -
1788466829 36.67° C 49% 1016.2 hPa 0 mm - - -
1788466511 36.67° C 49% 1016.2 hPa 0 mm - - -
1788465927 36.67° C 49% 1016.4 hPa 0 mm - - -

* Rain latest hour (hover to see other rain measurements)
** Current wind speed in m/s (hover to see current wind gust speed)